RH
18 17 16 15 15 14 14 14 14 14 14 14 13 13 12 14 22 23 20 20 20 18 15 14 17 20 19 17 17 17 18 18 18 19 19 18 17 17 17 17 17 17 18 18 18 19 19 20 21 24 25 26 29 32 36 38 36 43 64 67 63 77 73 65 69 68 72 76 77 73 74 85 90 89 84 85 85 88 89 80 89 93 84 80 72 69 72 76
18 17 16 15 15 14 14 13 14 13 13 14 13 13 13 12 18 24 22 19 20 18 15 13 15 18 19 17 15 16 17 17 17 17 17 18 18 18 19 19 19 19 18 18 18 19 21 23 24 28 30 28 31 33 37 38 38 58 75 62 69 86 70 62 66 63 65 70 77 75 71 80 87 86 82 90 95 94 96 90 93 95 85 79 74 72 76 78
18 17 16 15 14 14 13 13 13 13 13 13 13 13 13 12 13 20 24 22 20 19 17 13 13 15 17 16 13 15 16 15 17 16 16 17 18 18 18 18 19 20 20 22 22 24 26 28 30 31 30 31 33 35 37 39 42 55 61 62 79 84 65 58 60 58 58 64 76 77 72 78 80 79 83 93 97 93 96 96 94 92 86 80 73 74 77 78
17 16 15 15 14 14 13 13 13 13 13 13 13 13 13 13 12 15 21 25 21 19 18 15 13 13 15 14 14 14 13 17 17 15 18 18 18 17 17 18 18 20 23 25 27 29 30 31 34 33 32 36 37 36 39 41 46 52 58 68 75 71 63 58 58 59 59 61 69 76 77 77 74 75 84 91 96 96 93 89 84 81 78 74 73 75 77 78
16 16 15 14 14 13 13 12 12 12 12 12 12 13 13 13 13 12 16 23 24 21 19 17 14 13 13 12 14 12 14 24 19 13 18 17 16 17 17 18 18 23 26 28 30 31 32 34 35 33 34 40 42 41 43 44 48 57 61 62 62 64 65 62 63 62 60 61 67 75 76 73 75 80 83 83 92 94 86 82 76 70 65 65 72 76 78 78
15 15 14 14 13 13 13 12 12 11 12 12 12 13 13 13 13 13 13 17 23 24 20 18 17 14 13 11 13 11 15 24 18 13 18 15 14 16 17 18 20 24 27 31 32 32 35 35 34 34 38 44 49 51 48 47 51 59 58 55 57 58 63 66 64 60 55 61 70 72 69 72 81 85 81 77 83 84 78 77 70 64 62 64 73 76 78 79
15 14 14 13 12 12 12 12 11 11 11 11 12 12 12 13 13 13 13 13 18 23 22 20 19 17 15 13 13 12 14 17 15 16 17 14 15 15 17 18 21 26 28 31 32 34 35 34 33 35 47 52 49 50 47 47 51 56 56 55 57 56 61 64 60 57 52 57 66 64 65 75 81 80 80 80 81 79 77 73 66 65 68 69 75 76 76 78
16 14 13 13 12 12 11 11 11 11 11 11 12 12 12 13 13 13 13 13 13 18 22 23 21 19 18 17 15 15 15 16 17 17 14 14 15 14 17 17 22 28 29 31 32 35 35 35 35 33 50 56 45 46 48 51 53 55 57 56 56 59 63 62 59 57 54 60 62 60 68 74 73 73 81 88 84 78 76 71 68 70 72 74 76 76 77 76
16 14 13 13 12 11 11 11 10 10 10 10 11 11 12 12 12 13 12 13 12 13 19 23 24 21 21 19 18 19 19 18 17 16 14 14 14 14 16 16 22 27 27 30 31 34 35 34 35 32 43 49 43 46 50 52 53 51 53 52 55 62 64 61 60 57 57 63 61 64 76 73 68 71 81 90 85 77 73 71 72 73 74 77 76 77 78 75
17 15 13 12 11 11 11 10 10 10 10 10 10 10 11 11 12 13 12 13 12 12 15 21 25 24 23 20 21 23 20 17 16 17 16 15 17 18 19 20 23 27 27 29 28 30 32 31 34 33 37 42 43 46 48 47 46 47 50 52 57 61 60 57 56 55 58 61 60 71 82 73 64 69 81 90 85 75 71 73 75 75 75 75 75 76 75 73
17 15 14 12 11 11 10 10 10 9 9 9 9 9 10 10 11 11 12 12 12 12 13 19 25 26 25 23 23 25 20 16 17 17 17 18 21 21 22 23 24 26 26 27 28 28 30 31 33 35 36 37 41 46 44 41 42 44 47 53 57 58 56 54 55 53 55 60 62 70 75 67 62 70 81 85 81 73 69 74 76 77 76 74 74 74 72 70
18 16 14 13 12 11 10 10 9 9 9 8 9 9 9 9 11 11 11 12 12 12 13 18 25 27 27 25 24 23 18 17 18 17 20 21 21 21 22 23 23 24 24 24 26 28 30 32 32 34 36 36 44 47 41 40 42 40 46 55 56 60 58 51 54 51 50 60 63 63 64 69 71 72 79 80 78 74 70 74 77 78 77 74 74 71 71 70
19 17 15 14 13 12 10 9 9 9 8 8 8 8 8 8 9 9 10 11 11 11 12 16 24 28 27 24 20 19 19 19 19 18 20 21 21 22 21 22 22 22 23 22 25 28 29 31 31 34 34 37 42 42 40 40 40 41 51 66 66 65 60 47 50 51 47 56 62 59 63 77 77 66 75 83 78 77 77 77 78 78 77 74 73 71 71 71
20 19 17 15 14 13 11 10 9 8 8 8 7 7 8 8 8 9 9 10 10 12 16 19 24 28 28 23 17 18 19 18 19 19 21 22 21 22 21 22 23 22 23 23 25 28 29 31 32 33 34 38 35 36 52 52 50 56 54 69 81 69 60 51 49 53 51 54 58 62 68 79 79 65 73 83 77 79 81 80 79 77 77 75 74 73 70 70
21 21 18 16 15 14 13 11 9 8 8 8 7 7 7 7 7 7 8 9 11 18 23 23 26 30 31 24 16 17 18 16 18 18 20 22 20 21 22 22 23 22 23 23 24 26 28 31 31 34 34 35 37 44 65 63 63 74 56 64 81 64 60 58 50 54 54 54 53 57 69 76 74 64 68 79 78 78 79 80 80 77 76 76 76 75 71 69
23 21 19 17 16 15 14 11 10 9 8 8 7 7 7 7 8 7 8 9 13 24 29 28 29 31 33 27 19 17 17 17 18 17 18 20 20 21 21 21 22 22 23 23 25 25 29 32 32 35 33 37 51 59 67 67 70 78 62 63 71 60 61 57 49 52 49 54 53 52 66 71 64 56 61 76 79 77 79 76 75 75 75 75 75 76 74 71
24 21 19 17 16 15 14 13 11 10 8 8 7 8 8 7 7 6 8 12 17 24 30 32 33 33 30 24 20 19 18 18 18 18 17 18 20 20 19 20 20 21 23 25 27 28 30 33 33 38 41 47 62 65 60 61 64 69 65 65 66 60 61 56 54 54 45 54 59 54 64 67 62 56 55 70 77 78 80 74 70 70 70 71 73 74 73 70
25 22 20 18 16 15 14 13 12 11 9 7 8 9 9 8 8 9 14 19 21 25 32 34 32 33 28 19 20 20 18 19 19 19 18 18 19 19 19 19 20 22 26 28 29 31 32 33 36 46 53 50 53 62 58 52 56 67 68 65 62 55 53 55 56 54 48 53 58 57 63 64 62 57 52 63 74 77 77 71 67 66 65 66 68 68 67 65
28 27 24 22 20 16 14 13 12 12 9 8 10 9 8 8 9 14 20 22 23 27 32 30 25 27 24 18 19 19 17 18 19 19 18 18 18 19 20 19 21 22 26 33 32 31 31 33 40 46 51 48 45 51 53 49 52 62 68 67 62 50 49 54 51 50 51 52 57 61 65 64 59 55 54 58 68 74 73 71 69 67 66 64 63 61 60 59
35 33 30 28 25 19 15 13 12 13 10 9 12 13 15 19 21 24 25 21 21 22 21 19 18 20 20 17 17 17 18 17 18 19 17 18 18 18 20 20 21 22 27 36 36 32 31 38 47 46 43 45 44 42 45 51 52 53 58 62 56 45 46 47 41 45 49 51 56 56 58 61 55 55 56 55 64 72 72 71 70 67 65 63 60 57 54 52
38 35 34 32 28 24 18 14 13 12 10 11 16 23 29 33 35 36 31 22 18 17 15 15 15 17 17 16 17 16 18 18 16 18 17 17 18 18 21 22 23 25 29 33 35 32 33 43 48 41 37 37 40 43 43 48 52 52 52 51 48 46 46 41 39 48 47 47 54 52 54 56 49 52 54 55 63 68 68 69 67 63 63 61 59 55 51 49
35 34 34 33 31 29 21 16 13 11 11 13 22 31 33 37 41 41 38 31 21 15 14 14 15 17 15 13 15 16 21 25 17 14 17 17 18 19 20 24 26 28 30 31 34 38 43 49 41 33 35 34 38 44 41 41 48 53 50 44 45 48 47 39 40 49 44 42 51 51 51 51 49 54 56 57 60 61 61 62 59 58 58 55 53 51 47 46
30 29 30 32 32 29 25 19 12 12 13 15 25 30 30 36 39 38 38 36 28 17 14 16 16 14 13 13 14 15 22 26 19 14 16 17 19 19 19 23 26 27 30 32 36 41 42 39 34 32 33 34 40 45 42 41 45 50 49 45 47 47 48 44 40 45 42 39 45 49 54 58 55 52 52 52 52 53 54 54 54 54 53 50 46 45 43 43
25 23 24 29 31 29 28 20 11 14 14 14 23 26 26 33 35 35 36 35 33 24 16 16 17 14 13 13 12 15 18 19 18 15 14 16 18 19 19 21 24 25 29 31 34 38 33 25 26 32 33 33 41 46 45 42 44 48 46 47 49 46 48 50 44 42 41 38 42 50 64 76 69 50 47 50 48 49 49 47 49 48 48 46 43 43 42 41
21 20 21 23 28 30 27 19 13 14 14 14 21 24 23 26 29 32 33 32 32 29 18 13 17 15 11 13 13 13 14 14 14 13 13 15 16 19 20 18 21 24 26 27 29 32 29 21 20 28 34 34 38 45 44 40 45 46 39 40 40 37 42 46 45 44 44 46 46 47 59 78 80 58 50 54 49 48 48 44 44 43 43 44 42 41 40 40
19 20 20 18 23 28 25 21 17 13 14 15 20 23 19 22 30 29 33 44 40 28 19 14 15 14 11 14 13 11 15 15 11 11 13 14 13 16 18 18 20 22 24 26 27 28 27 22 19 23 30 35 36 39 40 37 41 43 37 34 33 35 42 42 42 47 53 55 49 49 58 70 75 59 53 58 51 48 49 47 45 40 41 42 40 40 39 39
17 18 17 16 18 22 26 26 20 13 13 13 17 20 16 20 27 21 29 48 41 24 19 16 13 13 12 12 12 14 18 16 10 11 12 14 14 14 17 20 17 16 19 21 23 25 24 19 18 23 30 37 37 36 38 35 37 43 37 31 31 34 40 40 41 51 61 57 52 62 61 55 66 66 60 60 50 46 50 50 48 41 39 42 39 38 39 38
15 15 15 16 15 18 25 27 23 15 11 12 14 15 16 21 24 27 38 40 25 18 20 16 12 11 11 11 12 14 15 14 12 12 11 12 14 13 16 20 18 17 15 15 19 22 21 14 13 25 32 35 37 38 37 30 32 40 33 30 34 35 38 40 41 55 65 52 50 67 56 47 73 80 63 53 45 45 49 48 49 46 41 41 39 37 38 38
13 13 14 13 13 16 20 25 25 15 10 12 10 13 17 18 19 30 44 34 17 19 18 13 13 12 10 11 12 12 12 12 11 12 12 13 13 13 15 16 16 16 12 14 17 14 14 11 11 24 29 28 34 38 34 28 29 31 29 33 38 41 47 47 46 56 62 53 52 60 51 50 75 79 57 47 47 48 48 47 49 46 43 43 42 37 37 40
11 13 12 11 12 14 16 22 23 15 11 9 9 14 14 20 33 38 39 32 22 20 16 13 14 11 11 13 14 15 12 11 12 10 11 12 12 11 11 12 13 16 23 26 23 18 16 13 14 21 22 23 27 27 28 28 25 26 32 35 34 46 58 63 69 60 50 60 64 59 54 48 62 76 62 48 51 50 42 45 50 47 45 46 44 40 37 39
11 11 11 12 11 13 15 19 22 17 11 8 10 13 12 29 56 53 37 28 23 22 19 18 19 15 16 16 14 16 13 12 12 9 11 12 12 12 11 15 16 23 45 45 29 28 22 11 15 17 15 20 22 21 24 26 28 32 38 36 34 49 57 61 71 57 47 64 65 60 59 46 53 74 66 50 53 55 44 41 48 49 45 44 43 40 37 39
11 10 11 11 10 14 16 19 25 19 10 11 12 15 25 39 49 50 44 29 21 27 26 21 21 19 20 20 19 17 13 14 13 10 14 14 15 17 14 24 26 21 45 50 28 29 26 14 15 13 10 16 20 26 26 26 32 32 36 43 45 53 54 55 63 59 59 62 55 57 56 44 51 59 53 47 44 47 46 37 39 44 40 39 41 39 37 40
11 11 8 8 17 24 21 22 26 17 11 16 15 22 43 52 50 51 47 30 21 28 26 19 23 25 24 25 25 20 12 14 15 11 15 14 17 21 17 27 27 13 30 40 28 34 37 27 21 9 8 14 18 27 29 29 34 30 33 43 47 56 57 54 61 63 61 55 49 56 52 46 53 45 39 45 37 36 41 34 31 34 30 31 34 37 39 40
11 11 7 14 32 38 29 23 24 17 12 17 23 33 41 49 61 57 44 37 33 30 25 23 31 30 27 30 29 23 16 17 15 10 15 16 15 21 20 20 20 22 34 33 28 37 37 33 26 11 10 12 14 23 27 29 31 30 35 35 38 58 61 51 55 59 60 59 54 47 42 50 53 39 35 39 33 31 33 33 34 31 30 32 35 41 44 41
12 11 12 26 42 42 30 23 23 17 11 19 35 45 41 43 56 52 49 51 38 27 27 29 33 31 36 49 46 30 17 17 18 12 13 18 19 28 28 19 20 28 31 29 34 35 27 29 28 18 14 11 10 18 21 25 29 29 33 30 30 47 57 53 55 66 67 62 59 48 46 61 54 39 40 38 33 34 31 33 36 35 37 38 39 44 45 41
11 11 23 39 43 39 28 23 25 15 12 26 35 42 48 48 47 42 43 40 25 27 35 35 36 35 38 51 55 43 21 14 18 14 14 19 20 28 28 21 21 20 18 31 45 37 25 30 31 21 17 13 11 15 17 23 32 32 28 32 35 36 48 51 47 64 66 49 54 54 49 61 49 32 40 39 35 37 34 36 36 37 40 39 40 43 42 42
15 16 31 43 40 34 25 23 23 12 13 29 36 50 58 44 35 39 39 27 21 33 41 37 36 38 40 41 50 53 33 20 21 17 21 24 18 20 21 16 17 15 14 23 32 33 30 33 35 23 13 13 14 15 18 21 29 34 29 32 34 26 39 51 44 56 57 42 57 59 46 56 52 41 44 37 33 34 34 40 41 41 43 40 41 42 40 42
24 26 37 45 39 31 23 21 20 11 16 32 45 61 57 32 23 31 29 20 19 29 36 36 33 37 45 42 44 49 35 30 33 24 24 26 20 19 15 12 13 14 15 11 14 29 34 33 37 28 14 16 21 21 23 21 21 31 32 27 29 28 32 38 40 49 46 40 57 58 49 55 54 55 50 31 32 37 35 43 46 47 50 43 41 43 42 45
32 31 40 48 37 25 20 19 17 13 24 45 55 50 39 31 29 24 21 18 19 24 27 31 31 33 45 45 43 48 40 36 36 28 27 26 19 17 13 12 13 11 15 13 14 33 41 32 31 30 19 14 23 29 27 24 21 25 29 24 33 48 46 36 38 46 43 44 55 51 49 55 52 56 49 29 34 40 36 44 47 45 47 42 40 43 43 43
34 35 46 50 36 27 25 25 25 25 37 58 64 47 33 33 28 20 19 18 18 20 24 33 35 33 42 44 40 42 43 46 41 31 32 27 18 20 17 13 15 16 17 15 20 37 41 29 27 34 28 16 21 28 27 29 28 26 29 28 32 41 38 33 36 41 43 51 62 54 50 58 57 51 43 32 35 38 33 38 42 40 39 39 40 40 38 39
36 44 52 50 43 42 40 42 50 56 61 63 59 49 40 34 28 25 22 18 17 16 20 35 37 31 35 35 34 39 44 55 55 39 32 26 19 20 19 15 17 17 15 16 25 35 34 33 38 36 27 22 27 32 31 31 36 41 37 34 41 42 37 37 36 43 50 51 61 63 54 59 63 51 39 33 35 35 32 33 38 37 33 36 41 37 33 33
39 49 51 52 54 54 56 64 68 69 73 66 51 45 42 35 33 31 23 20 20 15 14 24 26 26 30 26 31 44 44 46 54 46 35 28 23 17 15 18 17 15 20 24 27 35 43 51 49 33 25 26 26 31 37 35 42 51 43 41 49 46 51 54 38 38 48 44 54 63 54 58 70 64 51 42 37 32 28 31 34 31 30 35 39 36 33 34
41 45 46 53 54 51 61 71 66 65 73 67 48 40 39 39 38 35 29 25 21 17 18 21 21 21 24 25 30 43 45 40 45 47 38 33 29 18 14 22 20 17 24 24 24 36 46 46 38 38 51 53 41 43 50 47 48 44 40 52 51 39 55 67 54 56 58 50 51 47 43 58 70 73 69 54 39 31 27 29 29 28 34 38 38 36 35 38
46 46 48 55 51 48 64 74 68 71 79 71 59 51 45 40 37 34 34 29 21 20 21 23 22 18 21 32 37 45 48 38 35 39 36 33 30 19 17 25 24 21 20 19 24 28 26 32 38 42 51 51 46 53 55 50 48 41 41 58 59 55 61 54 57 71 60 51 57 46 48 66 64 65 71 54 40 38 33 29 25 27 35 37 36 35 37 41
54 55 50 51 50 50 66 77 77 81 83 77 72 69 58 47 39 34 35 31 24 22 22 23 21 18 24 35 36 39 45 37 31 34 33 34 33 23 20 26 30 35 34 24 22 21 24 45 64 57 46 45 48 58 64 54 42 38 44 49 54 63 54 31 42 59 43 43 57 52 56 62 51 52 55 45 42 42 37 33 29 28 32 33 33 33 36 42
60 70 67 60 54 52 61 68 72 82 86 78 72 68 65 61 51 39 34 31 25 21 20 20 18 17 23 25 24 28 34 34 34 35 34 36 38 29 20 23 31 45 52 32 17 32 47 56 73 71 51 49 56 58 66 58 37 34 39 38 49 63 55 41 46 51 49 51 55 62 64 46 34 43 47 47 50 43 39 40 34 33 34 33 33 33 35 36
58 76 85 81 70 66 68 65 71 85 81 72 72 67 64 69 66 55 42 30 27 28 26 24 23 23 24 25 28 31 32 35 36 37 37 37 44 40 24 21 26 31 42 31 18 45 60 43 54 64 44 48 63 59 55 47 33 39 40 33 49 63 54 42 36 40 54 52 50 72 74 41 31 44 47 52 56 47 45 43 33 32 32 30 35 40 39 36
52 62 74 81 83 87 84 72 78 88 73 68 78 69 62 71 72 66 57 45 43 45 42 45 47 44 45 42 37 34 37 41 39 39 42 40 47 50 31 23 26 21 30 34 31 57 67 39 38 48 37 47 64 63 60 50 41 53 54 41 48 56 46 35 34 47 53 41 46 71 68 45 38 41 43 49 50 45 41 35 30 30 30 32 39 42 39 33
49 54 57 65 78 87 83 71 75 81 68 68 78 64 58 71 67 59 61 65 69 60 52 63 64 57 63 61 47 45 49 47 40 43 50 47 47 47 32 27 27 22 34 46 42 51 52 35 40 45 31 38 55 59 61 52 42 47 53 56 62 62 56 47 52 66 56 42 63 80 68 56 47 39 41 43 41 41 37 32 33 32 31 36 39 38 34 29
53 61 59 63 74 75 71 65 68 75 67 66 72 58 53 66 61 52 55 61 69 62 53 63 62 53 63 67 61 66 64 54 51 52 54 51 47 44 39 37 32 27 40 46 39 41 37 32 51 57 35 35 52 58 60 57 47 38 44 65 72 63 58 54 62 71 53 46 74 83 67 62 57 52 51 40 35 41 40 36 35 33 33 35 36 36 33 28
51 62 65 79 88 77 71 69 70 78 73 65 69 63 57 61 53 52 59 54 50 52 51 56 58 59 67 65 62 65 58 52 58 57 53 50 46 43 42 41 35 34 43 43 36 47 51 41 51 59 41 34 46 58 66 67 56 43 47 61 64 59 56 54 60 65 51 49 66 64 51 52 56 60 58 47 41 42 41 40 37 34 35 34 33 32 29 28
39 56 67 87 90 73 75 79 73 77 71 56 60 61 54 53 47 53 69 60 42 43 48 48 53 64 68 58 54 55 48 47 51 47 46 47 44 45 44 40 38 37 44 50 47 58 67 51 44 52 46 38 51 67 70 59 46 48 60 62 58 63 64 55 56 62 61 60 58 47 42 51 59 59 51 49 54 50 42 40 36 34 35 32 29 27 25 27
Wind_Speed
17 17 17 18 18 17 17 18 19 20 21 22 23 24 25 26 21 15 11 8 5 2 2 4 4 4 4 4 5 6 7 9 10 12 11 5 3 4 4 5 5 6 6 6 6 5 5 5 5 6 8 8 3 1 4 3 1 2 2 3 1 2 4 4 5 5 3 3 4 7 7 5 4 5 7 7 6 7 7 3 4 9 10 5 8 17 20 16
17 17 18 18 18 18 18 17 18 20 21 22 22 23 24 25 23 18 12 10 7 4 1 4 5 5 4 5 6 7 9 10 13 13 7 3 3 3 5 5 5 5 6 6 7 6 6 6 6 5 4 4 2 1 2 2 2 2 3 2 2 4 4 3 6 6 2 5 7 7 6 6 5 5 6 5 4 7 7 2 6 7 8 8 14 19 18 16
17 18 18 18 18 19 19 18 18 19 20 21 22 22 22 23 23 21 15 11 8 6 2 3 5 6 6 6 7 8 10 12 16 12 4 4 4 4 5 5 4 4 5 6 6 5 5 5 5 3 2 2 1 1 2 1 1 1 3 1 4 4 3 2 4 6 4 10 11 7 7 6 5 5 4 5 5 4 6 6 7 11 13 15 19 19 17 16
17 17 18 18 19 19 19 19 18 18 19 20 21 22 21 22 22 21 18 13 10 7 4 2 4 6 7 8 8 9 10 12 12 6 4 6 5 5 5 5 5 5 5 4 5 5 4 5 5 2 3 3 2 2 1 1 1 1 3 2 4 4 3 1 3 6 8 13 13 11 9 7 5 5 5 8 6 1 4 8 9 14 20 21 21 19 17 16
16 16 17 18 18 19 20 20 19 18 18 18 20 21 21 21 20 21 20 16 12 8 6 4 4 5 7 8 8 10 8 6 3 2 1 5 5 6 6 5 5 5 4 3 3 3 4 3 4 5 4 2 2 2 2 3 3 1 2 4 4 5 3 2 6 9 11 13 14 12 9 7 5 5 9 9 3 2 6 8 12 19 23 22 22 19 18 17
16 16 17 17 18 19 20 20 20 19 18 18 18 20 21 20 20 19 20 18 15 10 7 5 5 5 6 7 8 8 3 2 4 4 5 5 4 6 5 6 5 4 3 2 2 2 2 3 7 7 4 1 2 2 2 4 5 1 3 2 4 5 3 5 9 11 12 14 12 10 9 9 9 6 7 4 1 5 8 10 17 22 22 22 21 20 19 18
16 16 16 17 18 18 19 20 20 20 19 18 17 18 20 20 20 19 19 19 17 13 9 7 6 5 6 7 8 7 7 10 10 6 5 5 5 6 6 6 5 3 2 2 2 3 0 6 8 6 4 2 2 3 3 4 4 2 3 1 3 3 5 8 9 10 11 12 11 11 10 9 9 6 3 3 4 8 8 13 20 21 21 21 20 19 18 16
16 16 16 17 17 18 19 20 20 20 20 20 18 17 18 20 20 19 18 18 17 16 12 9 7 6 6 7 7 7 10 10 5 2 6 6 5 6 6 7 5 3 2 2 1 2 1 4 8 6 3 1 3 4 6 4 1 1 1 1 3 4 7 8 9 10 10 12 12 12 9 7 9 8 4 5 8 8 11 17 20 20 20 19 18 18 16 14
17 17 17 17 17 18 19 19 20 21 21 21 20 18 18 19 20 19 18 18 17 16 14 10 8 7 6 6 6 6 7 4 2 3 5 5 5 5 6 7 5 3 2 1 1 1 2 2 5 4 0 2 3 4 7 4 1 0 2 3 5 6 8 9 9 10 10 10 13 10 7 9 11 7 3 4 10 11 15 20 20 20 19 18 17 16 15 13
18 17 17 17 17 18 18 19 20 21 21 21 21 20 19 19 19 20 19 19 17 17 15 11 9 8 6 6 3 3 3 1 1 3 3 3 4 3 4 4 5 4 3 3 3 4 4 3 3 2 1 3 3 2 2 3 3 5 8 8 7 8 9 8 7 8 8 8 12 10 6 8 7 3 1 5 12 15 19 21 20 20 19 18 16 15 14 12
20 19 18 18 17 17 18 19 20 21 21 22 22 21 20 20 19 20 20 19 18 18 17 12 10 8 6 6 4 2 0 1 3 4 3 3 3 2 2 2 3 3 4 5 5 3 2 3 3 2 1 2 3 1 1 4 7 11 14 10 7 8 8 7 6 6 5 4 13 14 7 3 2 2 5 10 15 17 20 20 19 19 17 16 15 14 13 12
21 20 20 19 18 18 18 19 20 20 22 22 22 22 21 21 20 21 21 20 19 19 18 13 10 8 7 9 7 2 1 3 5 5 4 4 4 3 2 2 4 3 4 6 5 3 1 2 1 3 2 3 2 2 2 5 6 8 10 7 4 6 5 4 5 5 2 3 14 13 4 4 4 2 9 14 17 18 19 20 19 18 17 16 14 14 13 12
21 21 21 20 20 19 19 19 20 21 22 22 22 22 21 21 21 21 21 20 20 20 19 14 10 9 7 8 5 2 3 5 6 6 7 6 6 5 4 5 5 4 5 5 3 2 3 2 1 2 2 1 1 3 5 2 3 4 5 4 2 5 2 2 3 5 2 4 13 6 3 3 5 2 10 15 18 18 19 19 19 17 17 16 15 15 14 13
22 22 22 21 21 20 20 20 20 21 22 22 22 22 21 21 21 21 21 20 20 21 18 12 9 7 7 7 5 5 8 7 8 8 7 6 6 6 5 3 3 3 4 3 2 3 5 5 4 3 1 3 3 5 4 4 4 3 3 3 2 3 1 4 1 6 3 3 10 2 3 4 6 3 10 15 17 18 19 18 18 17 17 17 16 15 15 15
23 23 23 23 22 22 21 20 20 21 22 22 21 21 20 20 20 20 20 20 20 19 14 10 7 6 8 10 5 6 9 9 9 7 6 6 6 5 3 3 2 3 2 1 2 4 5 5 4 3 1 2 3 4 3 4 4 3 2 2 3 3 2 6 1 7 4 2 5 2 2 4 6 5 11 16 17 17 17 17 17 17 16 16 16 16 15 14
24 25 25 24 24 23 22 21 20 21 22 22 21 20 18 18 19 19 19 18 16 13 9 7 6 5 6 7 3 3 7 9 8 5 6 7 7 6 5 5 4 4 2 2 3 4 5 5 2 2 1 1 3 4 4 4 4 4 3 1 2 2 1 3 1 5 7 4 1 2 2 2 4 5 11 16 17 18 16 15 16 16 16 16 16 16 16 15
25 26 27 27 25 24 23 21 20 21 21 21 20 18 17 17 17 16 16 14 12 11 10 6 6 7 5 4 2 2 5 9 9 7 8 8 10 10 10 10 7 7 3 3 3 3 6 5 2 1 1 3 2 4 4 3 3 4 3 1 2 1 0 1 3 3 6 5 0 2 1 4 5 4 9 16 18 18 16 16 17 17 17 17 17 17 17 16
28 28 29 29 27 26 24 22 21 21 21 20 19 16 15 14 14 13 11 9 9 9 9 4 3 5 3 4 4 7 11 14 12 10 11 11 11 12 13 13 8 5 1 3 3 5 6 3 2 0 3 3 2 5 3 2 2 2 1 1 1 1 2 3 3 4 6 4 3 3 2 7 7 5 7 16 18 18 19 19 18 18 18 18 18 18 17 17
29 29 30 30 29 27 25 23 21 20 20 19 16 13 11 10 10 8 6 7 8 5 4 4 3 2 4 9 13 14 17 18 16 13 12 11 10 12 13 13 9 4 1 2 2 4 5 1 1 1 2 1 3 5 5 6 5 5 5 4 3 2 3 4 4 5 7 5 3 5 4 7 6 5 6 14 18 18 19 18 17 18 19 19 19 19 19 19
27 27 28 28 29 27 25 23 20 20 19 15 12 8 7 8 5 4 8 12 10 7 9 11 11 12 14 18 20 18 19 19 17 13 10 9 8 9 10 8 6 4 2 2 2 2 3 2 3 5 7 6 7 6 4 5 5 5 5 4 3 3 3 4 3 4 8 5 3 6 5 7 7 5 6 12 14 15 16 14 16 18 19 20 21 21 20 20
25 25 26 27 27 26 24 22 19 19 15 10 8 6 8 10 5 5 13 15 12 11 15 15 13 16 19 20 18 17 17 17 16 14 9 9 7 5 5 3 2 2 3 3 3 0 3 2 6 10 10 7 7 6 5 5 4 5 5 3 2 3 4 4 2 5 8 4 3 4 4 8 8 6 5 8 9 12 17 16 17 20 19 20 22 23 23 21
25 25 25 25 25 25 23 20 18 16 10 6 5 7 9 10 7 7 9 10 14 16 16 15 13 17 20 19 16 14 11 10 15 15 9 9 9 6 5 4 3 3 1 4 3 2 2 3 12 12 6 5 5 6 7 5 4 4 3 3 2 3 3 3 2 4 7 3 2 4 5 7 8 5 5 9 11 15 20 21 21 20 19 21 22 23 22 21
25 26 25 25 25 24 22 18 17 12 3 2 2 4 6 8 8 8 6 7 14 17 15 13 14 17 19 17 13 9 9 8 11 14 9 10 12 9 8 5 4 3 1 3 5 2 1 7 11 6 6 8 4 4 7 4 2 3 3 4 2 3 2 1 1 3 4 1 1 5 4 5 5 4 4 10 15 16 16 18 20 19 19 21 21 21 20 19
26 27 26 26 25 24 21 17 14 7 1 1 1 1 5 8 9 8 5 5 8 11 12 13 13 16 17 14 9 6 8 8 9 9 5 11 13 9 8 5 4 2 3 5 7 5 7 11 4 6 7 8 6 5 7 5 2 2 4 5 3 3 3 2 3 4 1 1 2 5 2 5 3 2 5 6 9 12 13 13 16 18 19 20 19 20 19 18
26 27 26 26 25 24 21 14 9 4 3 2 4 6 5 8 11 8 3 2 4 6 8 9 9 12 12 8 8 9 7 8 14 13 7 10 12 7 5 6 5 4 4 5 4 4 10 12 3 6 5 6 7 5 5 7 3 3 4 8 7 6 4 3 6 6 3 2 2 4 2 5 5 3 6 4 2 8 10 10 14 17 17 18 19 20 20 19
27 27 27 27 26 25 20 10 6 5 4 1 5 8 6 9 11 7 1 3 3 5 3 2 3 4 5 5 7 6 3 7 14 15 13 12 11 8 4 4 4 3 4 6 2 3 7 7 2 6 5 6 6 4 5 7 5 2 5 9 8 7 7 7 8 6 3 4 3 3 4 3 5 4 6 4 3 7 6 7 13 15 15 17 20 21 20 19
28 28 28 27 26 26 21 14 11 8 4 3 7 9 9 9 9 3 1 5 3 4 1 3 3 2 3 3 6 7 1 5 7 7 13 13 11 11 6 3 2 2 4 4 1 2 5 5 3 6 5 6 5 4 6 8 8 3 5 6 8 7 7 8 8 4 2 2 3 4 4 1 4 5 5 2 3 5 6 6 9 13 15 17 19 20 19 19
28 29 29 27 26 25 23 19 15 9 5 7 9 9 9 8 5 2 4 4 2 2 1 3 3 4 3 2 8 10 4 5 3 2 7 11 11 9 6 6 6 4 3 4 4 4 3 4 1 6 5 4 5 5 8 11 6 6 2 8 7 6 6 6 6 3 1 2 2 4 2 1 4 6 5 2 2 5 7 8 8 12 16 17 19 20 19 19
29 29 29 28 26 24 23 21 16 10 7 10 10 9 7 6 2 3 5 1 2 1 1 1 1 3 3 2 8 12 8 4 1 0 4 10 12 7 3 6 7 5 3 3 5 7 4 6 4 7 5 4 5 4 10 13 5 4 6 11 7 7 6 4 5 3 3 3 3 5 2 2 4 6 3 3 1 6 8 7 7 11 15 16 19 20 19 20
29 29 29 29 27 25 24 21 15 10 9 11 10 8 4 1 2 5 3 3 2 1 1 2 1 2 2 1 3 5 5 4 2 2 4 7 9 6 2 3 4 4 3 2 3 8 7 7 3 4 4 5 4 2 4 8 5 5 7 8 7 6 5 4 3 4 3 2 5 6 5 5 2 5 3 2 3 6 6 5 5 8 13 16 19 20 20 22
31 29 29 29 27 25 25 21 14 8 9 11 10 5 2 2 4 5 2 3 2 2 2 3 3 2 3 1 3 3 2 3 2 3 3 1 3 2 2 0 1 3 3 5 3 6 6 3 2 2 4 7 8 6 3 1 3 6 5 5 5 4 4 4 4 3 2 4 6 4 3 6 1 5 4 5 6 5 6 6 6 8 14 20 21 22 23 23
31 30 28 28 26 25 24 20 14 8 10 9 5 3 5 2 1 3 4 2 1 2 1 1 3 3 4 2 2 4 1 2 2 3 3 2 2 2 2 4 2 2 4 3 3 6 3 3 3 1 4 7 7 5 4 4 4 6 6 6 5 2 3 2 2 1 2 5 3 1 2 3 4 7 6 7 8 6 8 11 11 13 19 23 24 25 25 25
32 30 28 24 22 23 21 17 13 12 10 6 3 3 6 3 3 6 3 2 1 2 1 1 3 3 3 3 2 3 1 2 2 2 2 2 1 3 3 3 5 3 3 3 2 4 4 6 5 2 3 4 7 6 3 1 1 5 6 5 4 3 3 1 3 1 2 4 2 2 2 1 4 5 5 7 8 9 13 15 16 19 22 25 27 27 26 26
32 29 26 20 16 18 17 13 12 14 11 7 4 4 5 3 5 3 2 3 3 3 2 1 4 4 2 1 3 2 1 2 1 2 2 1 0 2 3 2 4 5 3 1 1 1 1 5 4 2 2 2 5 5 5 5 4 2 3 6 5 4 4 3 3 3 3 2 2 2 2 2 2 3 4 7 8 8 12 13 13 16 19 21 23 24 26 26
32 26 21 15 11 14 14 10 13 16 14 9 4 4 4 5 3 1 3 4 2 3 4 3 3 5 4 3 4 2 1 2 2 2 1 1 3 3 2 4 4 4 4 2 3 1 2 4 7 4 0 3 4 3 5 7 4 1 2 5 3 4 5 2 2 4 4 1 1 1 3 3 4 5 5 4 4 1 5 8 9 12 14 14 16 20 24 26
29 22 14 9 11 12 11 11 15 17 16 10 5 2 5 4 3 4 3 1 0 1 4 5 4 3 4 4 4 3 1 1 2 2 1 2 3 4 4 4 6 7 6 4 3 1 2 4 8 3 2 2 4 5 5 5 4 1 1 3 4 4 8 5 1 0 3 3 1 1 3 4 3 3 5 5 5 4 2 4 8 10 11 12 15 19 23 26
27 22 11 8 13 11 9 12 16 18 17 10 4 4 5 3 5 5 2 1 1 2 4 2 2 0 2 2 3 4 2 1 1 1 1 2 2 5 4 4 6 10 10 7 3 3 3 3 7 1 3 1 2 6 7 4 5 5 3 5 3 3 5 5 2 3 4 2 2 2 2 4 2 2 5 6 3 0 1 2 4 7 11 13 16 19 22 25
27 20 11 12 15 7 9 13 17 19 15 7 1 4 2 2 4 4 2 2 1 3 5 1 2 1 1 1 3 5 3 2 2 1 1 2 3 4 3 3 6 10 12 9 3 1 4 1 8 3 2 2 3 8 6 6 4 4 5 5 4 3 1 2 2 1 1 1 3 4 3 3 3 4 4 3 4 6 4 2 3 6 12 16 18 19 20 23
24 14 9 16 13 3 10 13 18 17 10 4 2 3 2 3 4 4 3 1 2 3 2 3 2 1 1 2 3 4 3 1 1 1 1 1 3 3 3 3 2 3 8 10 5 1 3 2 5 4 1 2 4 5 2 2 4 4 3 3 2 3 4 3 2 2 3 3 2 3 4 3 5 5 5 7 9 8 7 6 5 9 15 19 20 20 21 23
20 9 7 15 6 10 13 14 15 11 6 3 4 2 1 3 4 5 5 2 2 2 1 3 2 1 3 2 2 2 1 1 2 1 1 2 3 4 3 4 0 2 3 6 4 2 3 3 3 5 3 0 0 0 4 5 2 2 2 0 1 2 2 2 2 2 3 4 3 1 1 5 6 4 7 9 9 8 10 9 7 12 17 19 20 22 22 24
18 6 5 11 4 15 13 11 8 4 4 2 2 2 1 2 2 5 6 5 5 5 4 4 4 3 3 2 3 2 1 2 2 2 3 3 2 3 2 1 1 2 4 3 3 3 2 3 3 2 3 1 4 5 5 7 6 5 4 4 3 3 4 3 1 1 2 3 4 4 2 7 6 4 6 8 7 9 11 10 9 15 19 19 21 22 22 23
15 3 4 9 6 15 8 4 1 2 4 2 1 3 1 2 2 4 5 3 4 6 4 4 4 4 4 3 4 3 1 2 2 2 3 3 4 5 3 5 2 6 6 2 4 3 3 4 4 0 0 3 5 4 2 5 6 5 3 3 4 4 5 5 3 3 1 2 2 4 1 6 6 3 5 6 7 9 12 12 12 17 19 20 22 22 22 23
16 7 6 9 6 16 5 2 1 2 1 1 0 2 2 1 1 2 3 2 3 3 2 2 4 4 4 4 3 3 3 3 4 3 3 3 4 7 5 5 2 6 5 1 3 2 2 4 4 1 4 4 5 5 3 2 5 5 2 2 3 2 3 6 5 4 3 2 2 2 1 6 6 3 5 7 7 7 12 16 16 17 18 19 21 22 23 25
18 10 7 11 4 15 4 1 3 0 2 2 3 2 3 3 4 4 3 3 3 2 1 2 4 4 5 3 3 4 4 3 3 4 3 2 3 6 4 3 2 4 3 3 4 4 2 1 4 3 3 5 5 6 6 4 2 3 0 2 2 4 6 4 2 4 2 3 5 4 3 6 6 4 4 4 5 5 10 17 19 18 18 19 21 22 24 25
14 7 6 11 6 10 3 3 3 2 1 2 2 2 3 2 5 8 8 6 7 5 3 3 4 4 4 2 2 3 4 4 2 3 1 2 4 5 3 6 4 3 3 4 7 8 5 2 4 6 4 2 2 2 3 2 1 1 1 1 2 4 6 3 2 4 1 2 4 4 4 6 6 3 4 2 5 5 7 14 17 19 19 20 22 24 26 26
8 3 6 9 9 10 8 7 5 2 2 2 1 1 2 1 5 9 7 7 9 8 6 5 3 2 2 2 2 4 4 5 3 1 1 2 4 4 6 9 6 5 1 5 10 8 4 2 3 7 7 7 7 6 5 4 3 2 3 3 2 3 5 5 4 1 3 3 2 5 6 4 6 4 3 4 5 6 6 11 16 19 19 20 23 26 27 26
4 2 3 5 6 7 6 8 10 4 0 1 1 1 3 1 4 7 3 3 4 3 4 5 2 2 4 3 3 4 5 4 3 2 3 4 4 4 9 9 4 4 1 2 5 4 4 3 1 5 6 7 7 4 1 2 3 5 6 5 3 3 4 6 3 3 4 5 3 8 5 5 7 7 6 7 7 6 7 12 19 22 22 22 24 26 26 26
4 1 2 3 3 2 2 7 10 6 3 2 1 1 3 3 4 4 3 6 6 4 2 2 1 2 3 3 4 3 3 2 2 3 3 2 3 5 6 5 2 5 2 2 3 4 6 2 1 3 1 2 2 2 1 1 1 3 5 6 5 4 4 4 4 5 7 5 6 7 6 7 9 8 8 9 10 11 13 18 21 22 22 23 23 26 27 27
6 2 4 5 2 2 4 9 10 5 4 4 2 3 4 4 4 3 3 5 6 5 5 1 3 6 7 4 5 3 1 3 3 3 2 1 1 2 3 3 2 5 6 4 4 2 5 2 1 3 3 4 4 4 1 2 0 1 1 3 4 6 6 4 3 4 5 3 4 5 7 8 9 8 8 8 10 13 12 13 17 19 22 24 25 27 29 29
7 4 6 7 4 5 8 8 5 3 4 5 3 3 4 3 4 5 3 1 4 6 5 3 7 9 7 2 4 5 2 2 3 4 3 1 1 1 1 2 2 4 6 4 3 3 4 2 1 4 4 4 6 5 3 2 2 1 3 4 0 4 4 2 2 2 2 1 1 5 4 7 8 7 7 4 6 9 7 10 16 19 22 25 26 28 29 30
8 6 6 6 3 5 8 6 3 3 3 4 3 3 4 2 4 6 5 2 1 2 4 5 8 8 5 3 6 3 2 4 8 10 8 5 4 3 3 2 1 4 5 3 2 4 4 2 0 5 5 3 5 5 6 5 6 4 6 6 2 4 3 3 3 5 5 4 3 4 2 6 7 4 3 2 7 10 10 14 17 19 22 25 28 30 31 31
11 8 6 3 2 5 6 4 3 3 2 2 3 3 3 4 6 6 3 2 1 3 8 8 6 6 3 4 7 8 15 16 17 18 16 15 15 14 12 10 6 3 1 2 2 3 3 4 2 3 3 4 5 4 4 4 6 5 6 6 7 6 4 3 2 5 7 7 7 5 6 6 5 2 3 3 5 9 13 18 20 21 23 26 29 32 33 32
Wind_Direction
350 348 345 343 344 346 350 352 350 350 353 356 2 7 11 14 16 17 22 22 14 346 228 225 235 253 281 291 285 286 288 293 299 299 296 281 245 237 228 227 216 217 225 230 244 254 262 280 279 277 274 271 281 17 76 80 108 145 100 81 181 185 192 197 185 191 160 154 174 173 164 132 124 128 130 118 123 128 128 199 241 219 225 222 164 153 156 157
349 347 343 341 340 341 344 347 348 348 350 351 356 2 8 13 16 16 17 25 25 9 250 220 229 242 265 275 267 271 281 290 295 294 284 241 224 219 228 227 232 242 245 256 265 273 287 291 285 292 275 245 250 38 89 98 78 94 97 90 235 202 200 210 177 190 165 141 153 158 149 124 128 142 143 121 114 123 109 216 216 185 186 168 158 158 158 158
349 346 342 340 338 338 339 342 344 346 347 348 350 356 4 9 14 16 14 20 26 18 341 244 229 239 250 257 260 269 282 295 296 290 246 223 231 215 231 245 254 262 268 271 274 288 293 288 288 300 90 110 104 88 92 93 71 93 101 112 246 209 202 258 183 192 178 152 141 134 141 122 132 150 146 131 114 125 142 175 175 148 148 152 157 159 158 161
349 346 343 340 338 336 336 337 338 341 344 344 345 348 356 3 9 13 13 13 19 23 5 312 247 243 247 255 265 272 288 305 300 283 218 237 239 231 246 266 279 283 280 283 293 299 296 287 272 230 122 90 74 124 167 129 99 140 132 181 229 185 153 282 178 169 161 152 140 131 133 122 138 158 148 134 109 341 199 177 174 156 152 154 157 159 162 168
350 347 344 340 337 335 333 333 333 334 338 340 341 342 346 355 3 8 11 11 14 17 11 348 291 261 256 261 269 275 299 334 326 74 338 265 242 243 258 275 286 289 283 315 326 313 310 282 206 165 130 99 105 132 206 141 119 149 218 219 187 156 122 112 140 142 147 143 135 131 131 135 136 134 144 140 117 221 191 180 172 158 154 155 157 161 168 173
353 348 344 340 337 334 331 330 329 328 329 332 335 336 338 344 354 2 7 9 10 9 7 356 329 294 271 267 274 279 278 297 291 329 332 300 260 248 263 282 289 290 297 14 21 329 307 172 155 154 128 87 152 172 216 140 133 145 287 247 159 157 130 127 130 135 145 136 130 135 134 136 119 108 140 141 120 164 167 169 160 155 156 157 159 166 173 178
355 350 345 341 336 333 331 328 326 324 323 324 327 330 331 335 344 354 0 4 7 7 2 350 335 312 295 282 282 281 251 268 296 313 294 279 272 262 269 287 290 287 322 38 11 344 286 164 159 155 115 71 171 180 195 165 163 182 334 0 143 132 113 131 131 131 140 131 130 135 129 127 119 120 142 110 128 147 160 163 157 157 158 160 166 173 178 182
355 351 346 341 336 333 330 326 324 321 319 318 318 322 325 327 334 343 352 358 2 4 0 349 335 315 307 295 290 290 270 281 326 311 256 247 255 265 273 285 287 282 321 24 12 23 24 184 180 165 103 142 168 147 171 169 133 169 26 70 117 95 105 119 122 123 120 120 130 127 122 127 123 125 121 115 133 147 159 159 159 160 163 169 175 179 184 189
353 350 347 342 336 332 329 326 321 319 316 313 312 314 318 321 325 333 342 350 355 359 357 348 335 319 307 301 305 309 294 313 15 244 241 234 249 263 273 284 279 274 309 336 203 218 279 234 194 196 160 169 151 143 166 153 13 227 117 124 120 104 112 111 110 116 111 124 134 116 111 132 125 111 81 130 144 151 158 159 163 164 169 176 181 187 193 199
348 347 345 343 338 333 329 325 320 316 314 310 307 307 311 314 318 324 332 341 347 352 352 346 335 322 303 295 308 328 320 8 190 216 216 236 246 252 265 282 277 286 324 320 289 260 270 315 283 244 176 149 124 123 159 121 109 106 97 100 107 107 113 114 112 116 109 129 141 126 129 144 136 117 111 171 155 157 161 162 168 171 176 181 186 194 197 203
345 344 343 342 340 335 329 325 320 314 310 307 303 302 306 308 311 317 323 331 339 345 346 344 334 320 300 278 246 212 292 161 182 189 202 241 228 244 265 278 279 293 334 341 339 310 308 335 285 234 196 151 122 49 40 111 120 120 108 86 71 90 100 114 124 137 112 120 145 136 130 129 86 125 168 170 161 165 168 168 175 180 184 188 191 196 198 204
342 341 340 339 340 337 333 327 321 314 308 305 301 299 302 303 305 310 315 323 332 339 340 339 332 321 307 282 259 232 195 185 197 203 203 225 241 266 279 273 276 283 311 335 351 334 349 35 241 232 239 157 134 34 107 129 118 122 112 85 43 61 84 127 133 163 121 133 158 138 81 357 356 132 162 165 164 172 176 176 184 190 194 195 196 198 201 208
339 339 338 337 337 337 335 331 326 317 309 304 300 300 300 300 301 305 310 318 327 333 334 332 325 321 308 290 291 295 248 206 200 207 210 226 247 257 263 269 274 283 296 313 334 278 232 258 292 252 258 121 108 104 122 120 73 84 78 84 57 27 46 168 133 155 96 150 177 146 38 294 305 202 166 166 169 175 181 186 191 196 200 200 201 204 208 210
337 337 336 335 335 335 335 333 330 322 314 309 305 303 301 299 299 302 309 317 325 329 329 326 321 321 298 292 313 284 267 244 221 212 208 222 244 256 258 258 272 288 299 320 315 255 244 257 276 281 344 45 105 120 91 18 36 52 37 52 58 55 277 288 141 146 92 180 197 124 76 227 282 240 173 173 178 180 186 193 197 201 203 204 207 211 214 212
335 334 333 333 332 332 334 333 332 327 320 315 311 308 305 301 300 304 312 319 326 330 331 326 320 322 300 296 303 270 267 258 241 224 208 222 244 253 234 222 271 288 268 270 255 257 256 244 258 292 346 57 100 102 22 4 25 41 69 346 356 96 262 300 214 157 133 190 211 97 90 247 276 234 185 181 186 188 195 201 203 208 209 212 215 217 220 219
332 330 329 329 329 329 331 332 334 331 324 320 317 315 310 306 305 308 316 320 326 335 343 334 319 323 305 300 316 257 255 258 260 258 236 234 239 236 232 251 291 315 277 211 232 249 233 217 240 306 303 90 93 85 40 20 357 4 91 200 300 86 304 298 252 187 149 119 355 101 140 245 270 231 192 188 194 194 202 211 212 216 219 221 225 227 229 228
328 326 325 325 324 325 327 330 333 331 328 324 320 320 318 314 311 313 317 317 321 333 339 333 315 308 281 274 329 315 285 287 289 289 278 261 248 246 251 262 290 321 306 177 197 204 188 192 209 280 44 77 87 87 53 15 324 322 42 72 240 156 191 258 291 242 143 115 140 104 101 244 270 262 193 195 200 198 207 217 221 224 227 230 232 235 237 237
324 322 321 321 320 321 322 326 331 332 330 327 326 329 327 319 316 314 310 309 315 325 332 336 340 329 269 242 289 303 310 311 303 295 294 283 260 256 260 263 279 320 321 160 177 177 178 187 160 296 17 38 59 91 101 225 201 212 166 99 254 181 182 211 251 218 148 119 166 142 297 262 275 296 214 204 202 203 213 221 226 229 232 236 238 239 242 243
324 322 320 319 318 317 318 322 328 331 332 333 337 337 330 322 316 305 293 302 308 308 310 298 294 295 258 270 283 292 302 305 301 292 293 294 273 261 264 264 262 257 165 137 204 184 174 194 86 312 305 237 189 160 175 200 170 162 167 144 161 185 231 221 238 213 156 125 167 175 227 259 269 279 230 209 204 210 221 226 230 233 236 239 242 244 246 248
328 326 324 321 318 315 316 320 326 331 335 344 349 349 350 346 335 306 308 302 289 275 281 287 284 273 272 282 288 294 300 300 296 287 289 296 277 260 264 263 250 237 191 146 212 204 159 224 258 239 240 217 194 194 172 161 134 127 132 118 160 196 265 242 244 216 153 136 218 196 214 257 262 266 240 213 207 216 228 233 235 236 239 241 244 247 249 253
334 333 331 326 321 317 316 318 323 331 341 357 5 32 42 21 11 322 320 309 286 280 286 291 288 277 279 286 291 294 296 298 293 283 277 271 252 236 247 228 153 239 241 146 120 100 123 206 249 234 232 212 176 175 152 136 106 102 129 128 165 211 251 256 231 183 157 153 233 181 203 256 260 265 245 207 201 221 225 226 233 237 240 244 247 251 253 258
336 337 337 333 327 321 318 319 323 331 349 15 31 60 48 28 9 311 305 299 293 294 294 295 287 280 284 287 291 289 276 282 292 286 266 232 220 203 191 154 146 222 257 116 106 17 59 241 250 244 215 148 141 159 160 157 113 88 118 133 186 221 231 295 355 152 160 171 254 175 190 253 268 262 229 198 205 226 225 224 233 236 238 244 249 254 256 258
336 338 340 338 333 327 323 321 323 330 0 60 71 68 25 16 2 317 262 263 294 298 295 291 284 282 285 286 290 279 237 236 278 288 268 212 204 197 185 148 137 193 162 163 173 147 235 246 244 227 146 127 112 136 141 136 116 106 117 131 239 231 160 262 334 136 154 150 166 161 190 272 290 287 254 216 216 230 235 234 241 242 243 249 254 259 259 261
336 338 339 340 337 332 329 325 324 326 270 319 237 212 354 1 354 330 251 241 292 296 290 283 279 276 278 284 283 253 231 230 250 272 256 199 189 183 194 164 124 197 220 192 179 176 238 252 222 124 141 139 117 134 140 141 229 256 161 168 217 200 170 191 152 127 105 356 101 110 52 313 302 281 273 250 228 235 242 240 244 246 247 254 259 261 261 264
337 338 338 340 338 336 335 328 326 313 261 305 238 235 322 345 339 328 259 259 296 287 291 280 272 270 269 273 254 241 245 249 254 259 240 206 194 173 182 173 160 227 218 168 173 222 254 261 213 129 154 141 133 167 170 163 198 301 224 202 195 167 148 126 122 113 97 279 254 108 81 299 310 278 256 279 244 233 239 236 239 240 239 246 252 257 261 262
337 337 338 340 338 338 338 332 326 306 281 253 214 239 289 325 331 317 193 44 319 271 284 244 246 256 246 238 227 226 250 265 270 262 237 226 219 191 164 166 175 226 186 153 174 230 261 278 136 136 149 138 150 205 210 169 139 315 240 204 182 144 122 135 139 123 138 227 266 97 137 257 315 296 264 283 229 237 254 241 240 238 231 235 245 253 257 255
334 334 335 337 338 337 336 331 318 307 294 235 222 238 267 309 329 283 148 34 321 264 204 193 197 183 207 230 196 166 160 293 305 267 221 215 211 192 188 198 180 220 169 132 325 249 250 296 74 113 117 127 162 223 215 158 129 235 247 166 152 138 137 161 154 136 168 197 346 32 114 149 308 274 279 293 206 255 278 254 248 239 227 231 241 247 250 246
330 330 329 331 334 333 329 325 314 302 281 251 238 235 256 305 320 193 105 52 282 268 133 201 206 203 235 265 201 193 243 304 348 328 212 196 193 183 202 217 176 191 177 142 268 268 222 268 185 127 109 136 191 214 180 151 148 246 225 102 124 129 135 159 140 117 47 80 332 318 79 104 276 274 315 20 179 266 264 242 241 233 227 227 233 241 242 237
325 326 325 324 327 327 323 320 312 295 268 253 241 235 257 299 294 117 88 97 270 334 131 222 207 223 260 270 213 221 251 286 274 2 157 175 191 182 203 222 173 181 230 160 234 262 253 263 231 137 138 194 216 221 168 158 179 223 111 89 87 79 82 103 110 101 37 49 249 255 157 127 276 281 330 33 251 256 249 244 238 229 227 224 228 233 231 225
322 322 321 319 321 322 318 317 312 291 261 251 243 238 260 308 102 83 77 236 268 290 240 323 312 261 305 346 267 244 233 258 265 151 131 165 196 191 156 217 160 158 279 349 248 263 282 284 257 142 162 174 148 68 147 159 155 129 96 77 69 51 51 57 62 86 61 345 262 240 171 128 309 280 242 191 224 220 217 246 244 224 226 222 223 226 220 216
319 319 319 317 317 317 312 312 313 284 247 249 249 229 169 92 83 97 187 236 274 293 337 345 311 348 31 63 288 285 202 261 276 154 169 152 180 191 107 187 70 71 353 349 300 290 316 301 261 182 158 129 99 59 46 67 85 94 87 86 83 18 17 33 4 50 102 266 274 258 151 118 164 264 244 232 240 215 191 213 214 205 218 219 217 217 214 211
318 315 316 315 313 309 304 303 296 249 225 243 253 181 144 109 50 179 228 307 326 274 351 304 287 337 7 35 239 249 216 254 260 142 173 164 144 199 190 189 189 16 332 310 307 327 327 248 281 317 167 137 105 72 40 11 31 82 94 94 91 20 15 25 324 48 203 249 265 226 130 119 226 249 254 251 248 229 208 209 203 199 210 216 216 213 210 209
318 315 315 315 312 307 301 293 267 223 212 233 218 125 106 106 220 216 242 312 252 261 311 244 284 322 338 343 286 256 254 239 244 135 155 148 166 251 269 197 157 137 256 244 334 353 333 304 327 35 198 161 120 117 122 151 136 134 131 121 121 101 72 307 274 293 255 263 278 237 210 304 280 263 241 248 259 238 221 216 210 207 212 217 218 213 209 209
319 319 317 314 316 311 301 282 236 206 206 216 172 106 100 158 225 221 240 257 255 300 328 294 312 339 1 308 279 273 269 271 270 121 130 73 82 265 291 251 155 123 137 173 287 96 52 309 290 180 215 183 143 153 164 149 137 165 143 125 141 147 139 197 217 196 224 263 307 278 205 172 240 254 238 256 280 254 226 224 217 213 216 218 217 212 208 209
323 323 319 313 319 314 297 260 210 196 200 194 130 97 154 195 233 196 216 251 286 308 314 346 18 5 347 308 305 326 163 268 337 73 134 154 182 211 221 218 194 135 120 153 240 171 101 261 255 257 48 144 178 184 135 109 95 279 118 107 155 179 137 121 175 175 176 151 37 247 222 212 220 262 293 311 327 292 203 211 207 205 211 213 211 209 209 210
327 327 325 312 320 314 282 232 196 190 190 168 111 160 198 206 208 181 197 229 38 335 335 353 41 43 322 310 333 354 97 229 336 33 270 226 209 212 212 217 192 166 150 159 210 179 86 277 278 306 64 145 212 180 131 129 140 139 144 172 214 165 116 110 170 63 85 129 202 254 261 296 315 289 319 22 47 47 95 174 189 194 200 206 208 209 209 210
333 334 336 321 324 311 247 204 178 180 179 153 128 207 212 216 190 188 204 140 108 53 67 23 328 9 286 308 312 313 333 323 348 24 267 287 255 206 216 241 195 187 186 173 202 209 144 275 295 319 106 302 190 115 77 64 115 118 190 198 180 111 97 108 118 20 40 163 267 321 270 292 333 283 321 11 49 91 145 149 168 182 194 206 211 210 211 211
335 337 342 335 330 299 208 181 168 172 167 136 164 225 211 209 193 195 205 147 114 51 77 133 257 235 173 265 282 294 328 335 341 6 220 297 277 205 195 236 205 202 199 175 172 253 123 233 292 289 152 305 26 86 62 8 49 123 176 155 117 132 157 104 123 127 103 178 283 316 304 266 207 219 281 290 213 205 200 174 161 183 198 207 211 210 210 211
336 338 349 345 340 195 170 161 164 165 147 122 218 233 222 228 244 242 217 138 114 90 65 224 223 356 250 198 247 295 335 310 312 0 171 244 265 227 181 207 241 235 195 166 150 169 106 126 273 279 213 279 7 65 129 304 10 49 90 76 72 135 157 152 143 153 143 153 234 311 331 273 228 215 204 213 213 193 185 192 197 206 208 207 208 207 207 210
342 347 357 352 7 144 140 144 153 148 129 150 199 206 254 254 278 267 240 241 197 166 230 213 167 313 259 243 268 279 324 255 204 192 238 211 254 272 231 189 213 18 170 157 137 115 77 103 224 282 319 71 117 183 183 176 140 76 78 60 2 66 127 147 90 81 121 139 177 171 300 265 251 210 189 206 212 193 190 194 200 213 213 211 211 208 208 211
351 354 358 359 101 141 130 134 142 115 114 145 181 182 260 266 305 303 276 252 228 222 219 192 178 204 224 275 282 237 306 292 219 206 242 212 215 272 271 221 205 138 120 128 152 153 129 132 171 291 2 86 235 248 201 176 165 150 156 186 174 126 127 120 65 325 90 115 167 156 202 267 260 210 201 205 196 200 205 192 191 212 215 213 212 210 211 213
353 336 353 6 153 161 141 130 110 61 131 146 202 193 259 294 282 309 298 258 225 231 228 209 211 207 200 229 241 212 201 268 233 198 219 219 201 211 265 338 296 163 136 160 209 182 136 115 107 63 201 217 262 286 173 168 153 129 129 157 150 126 118 124 173 228 103 83 144 128 159 271 264 221 224 226 212 210 205 193 195 211 214 213 211 210 212 214
342 315 346 7 187 179 149 36 346 26 165 206 293 208 256 286 232 307 314 276 232 224 217 221 211 211 221 218 209 200 192 209 218 205 214 240 228 221 247 338 24 150 131 148 215 169 93 89 87 334 304 305 313 347 31 80 100 98 51 55 108 119 119 138 170 168 127 141 146 105 236 269 275 269 256 249 239 210 197 198 204 210 212 211 209 209 211 213
334 314 348 18 183 189 171 59 181 3 316 323 18 344 273 229 209 237 250 243 243 193 166 244 215 215 232 196 160 201 200 192 228 229 207 210 244 243 253 334 61 156 174 210 189 166 168 122 97 82 2 349 347 353 351 341 42 101 65 11 74 102 101 113 123 84 95 185 149 132 226 256 272 307 313 252 209 186 195 200 205 210 210 208 206 209 211 212
340 317 336 20 88 158 117 57 163 154 40 19 18 327 298 268 235 239 231 231 239 210 191 261 235 210 222 180 161 223 205 185 234 276 217 214 272 275 308 349 25 140 212 197 155 149 153 146 115 120 135 159 188 270 268 257 315 108 146 66 69 108 115 133 103 73 70 204 138 149 218 263 281 321 352 292 182 180 200 198 205 214 212 208 207 207 209 211
358 352 323 358 48 82 71 49 44 76 112 69 50 317 347 5 296 282 258 237 243 232 224 250 246 210 232 219 228 265 246 206 201 296 290 265 269 277 323 340 26 88 141 132 128 126 108 90 125 139 159 179 188 215 221 171 135 175 182 162 151 132 116 106 91 113 189 163 173 219 204 237 278 275 296 262 208 201 204 193 202 211 210 209 208 207 208 210
16 48 339 340 8 35 51 34 22 16 241 110 126 9 12 11 321 318 296 254 268 255 237 243 218 204 234 213 197 242 253 219 193 228 243 249 260 292 317 319 13 63 330 121 108 105 92 73 140 145 172 197 187 197 217 129 153 186 186 178 164 136 111 106 120 203 158 119 275 261 195 184 244 250 238 233 221 220 216 201 202 207 207 207 207 207 208 209
20 19 23 12 337 340 14 349 345 341 351 34 144 36 24 25 1 347 313 317 340 20 11 301 342 330 271 213 178 219 247 205 217 243 229 242 289 329 329 304 340 24 25 65 47 100 113 95 190 149 182 227 151 25 4 110 142 162 176 190 173 151 153 155 190 194 148 145 240 239 178 193 234 244 232 219 209 206 208 206 205 205 205 205 204 205 206 208
22 3 358 7 328 259 302 317 321 339 22 23 33 28 26 26 11 338 290 322 340 7 25 334 297 328 316 251 188 184 186 182 226 256 235 233 285 347 340 284 304 20 52 61 7 62 111 97 207 130 50 8 3 345 315 146 66 72 193 222 187 168 168 161 195 200 159 170 231 185 183 227 240 229 234 238 219 212 212 210 206 203 203 202 203 204 206 208
21 3 337 342 323 308 324 329 340 37 29 16 32 11 1 29 19 335 294 312 329 338 10 348 303 316 313 279 143 141 154 186 237 249 217 153 72 155 229 240 253 349 29 63 357 15 93 128 248 91 66 341 332 355 40 92 136 176 330 333 98 145 148 142 157 176 170 256 248 132 171 258 259 226 237 262 209 203 216 214 208 206 204 202 203 205 207 209
18 2 338 334 326 333 340 338 359 66 31 9 14 345 343 12 11 336 293 235 167 351 350 321 305 304 301 19 72 95 295 285 258 256 253 263 284 262 246 247 262 329 356 47 15 7 65 117 20 69 79 292 311 2 12 31 62 34 327 307 213 151 171 207 187 175 178 173 139 117 168 255 259 226 216 209 179 186 210 217 211 209 206 203 205 208 210 211
18 8 345 322 307 346 352 335 353 50 61 350 342 334 316 309 330 340 307 242 146 27 352 331 309 298 296 36 34 335 312 301 281 277 277 273 278 278 267 262 260 259 309 84 58 21 75 120 145 94 111 247 289 354 12 36 44 350 288 229 192 191 208 234 247 220 194 151 137 171 215 234 244 203 168 196 190 194 214 219 214 210 208 208 211 213 215 214